When you browse on this site, cookies collect data to enhance your experience and personalize the content and advertising you see.
Visit our Privacy Policy to learn more. By continuing to use the site, you agree to this use of cookies and data.
EN

Hourly Weather Postolivka

Today, 14 August, Friday

Time Temperature Precipitation Wind Pressure Humidity
00:00 +15°C° 0 mm 1 mps 739 mmHg 76%
01:00 +14°C° 0 mm 0 mps 739 mmHg 78%
02:00 +15°C° 0 mm 1 mps 739 mmHg 81%
03:00 +15°C° 0 mm 1 mps 739 mmHg 82%
04:00 +14°C° 0 mm 1 mps 739 mmHg 83%
05:00 +13°C° 0 mm 0 mps 739 mmHg 83%
06:00 +16°C° 0 mm 1 mps 739 mmHg 79%
07:00 +18°C° 0 mm 1 mps 739 mmHg 75%
08:00 +20°C° 0 mm 1 mps 739 mmHg 71%
09:00 +21°C° 0 mm 1 mps 740 mmHg 65%
10:00 +21°C° 0 mm 2 mps 740 mmHg 60%
11:00 +24°C° 0 mm 2 mps 740 mmHg 55%
12:00 +24°C° 0 mm 2 mps 739 mmHg 54%
13:00 +24°C° 0 mm 2 mps 739 mmHg 54%
14:00 +24°C° 0 mm 2 mps 739 mmHg 53%
15:00 +24°C° 0 mm 2 mps 739 mmHg 54%
16:00 +24°C° 0 mm 2 mps 739 mmHg 55%
17:00 +24°C° 0 mm 2 mps 739 mmHg 56%
18:00 +21°C° 0 mm 3 mps 739 mmHg 63%
19:00 +19°C° 0 mm 3 mps 739 mmHg 69%
20:00 +18°C° 0 mm 3 mps 739 mmHg 75%
21:00 +17°C° 0 mm 3 mps 739 mmHg 77%
22:00 +16°C° 0 mm 3 mps 739 mmHg 79%
23:00 +14°C° 0 mm 3 mps 739 mmHg 80%

Tomorrow, 15 August, Saturday

Time Temperature Precipitation Wind Pressure Humidity
00:00 +14°C° 0 mm 3 mps 739 mmHg 78%
01:00 +14°C° 0 mm 4 mps 739 mmHg 75%
02:00 +14°C° 0 mm 4 mps 739 mmHg 72%
03:00 +14°C° 0 mm 4 mps 739 mmHg 73%
04:00 +13°C° 0 mm 4 mps 739 mmHg 74%
05:00 +13°C° 0 mm 4 mps 739 mmHg 75%
06:00 +14°C° 0 mm 4 mps 739 mmHg 74%
07:00 +15°C° 0 mm 4 mps 739 mmHg 72%
08:00 +16°C° 0 mm 5 mps 739 mmHg 70%
09:00 +17°C° 0 mm 5 mps 739 mmHg 68%
10:00 +20°C° 0 mm 5 mps 739 mmHg 65%
11:00 +21°C° 0 mm 5 mps 739 mmHg 63%
12:00 +22°C° 0 mm 5 mps 739 mmHg 62%
13:00 +23°C° 0 mm 5 mps 739 mmHg 60%
14:00 +25°C° 0 mm 5 mps 738 mmHg 59%
15:00 +25°C° 0 mm 5 mps 738 mmHg 60%
16:00 +25°C° 0 mm 5 mps 738 mmHg 61%
17:00 +25°C° 0 mm 4 mps 738 mmHg 61%
18:00 +22°C° 0 mm 4 mps 738 mmHg 63%
19:00 +21°C° 0 mm 5 mps 738 mmHg 65%
20:00 +20°C° 0 mm 5 mps 738 mmHg 67%
21:00 +20°C° 0 mm 5 mps 738 mmHg 62%
22:00 +20°C° 0 mm 5 mps 738 mmHg 57%
23:00 +20°C° 0 mm 5 mps 738 mmHg 51%

Day after tomorrow, 16 August, Sunday

Time Temperature Precipitation Wind Pressure Humidity
00:00 +19°C° 0 mm 5 mps 738 mmHg 52%
01:00 +17°C° 0 mm 5 mps 738 mmHg 53%
02:00 +18°C° 0 mm 4 mps 738 mmHg 53%
03:00 +17°C° 0 mm 4 mps 738 mmHg 55%
04:00 +15°C° 0 mm 4 mps 738 mmHg 58%
05:00 +15°C° 0 mm 4 mps 738 mmHg 60%
06:00 +17°C° 0 mm 4 mps 738 mmHg 62%
07:00 +18°C° 0 mm 4 mps 738 mmHg 64%
08:00 +19°C° 0 mm 5 mps 739 mmHg 66%
09:00 +20°C° 0 mm 5 mps 739 mmHg 64%
10:00 +22°C° 0 mm 5 mps 739 mmHg 62%
11:00 +25°C° 0 mm 5 mps 739 mmHg 60%
12:00 +25°C° 0 mm 5 mps 739 mmHg 59%
13:00 +26°C° 0 mm 5 mps 739 mmHg 57%
14:00 +27°C° 0 mm 5 mps 739 mmHg 55%
15:00 +26°C° 0 mm 5 mps 739 mmHg 56%
16:00 +26°C° 0 mm 5 mps 738 mmHg 57%
17:00 +26°C° 0 mm 4 mps 738 mmHg 59%
18:00 +23°C° 0 mm 4 mps 738 mmHg 63%
19:00 +22°C° 0 mm 4 mps 738 mmHg 66%
20:00 +20°C° 0 mm 3 mps 738 mmHg 70%
21:00 +19°C° 0 mm 4 mps 738 mmHg 68%
22:00 +19°C° 0 mm 4 mps 738 mmHg 65%
23:00 +18°C° 0 mm 4 mps 739 mmHg 63%

17 August, Monday

Time Temperature Precipitation Wind Pressure Humidity
00:00 +18°C° 0 mm 4 mps 738 mmHg 60%
01:00 +17°C° 0 mm 4 mps 738 mmHg 57%
02:00 +17°C° 0 mm 4 mps 738 mmHg 53%
03:00 +17°C° 0 mm 4 mps 738 mmHg 55%
04:00 +17°C° 0 mm 4 mps 738 mmHg 56%
05:00 +15°C° 0 mm 4 mps 738 mmHg 57%
06:00 +17°C° 0 mm 4 mps 738 mmHg 60%
07:00 +18°C° 0 mm 4 mps 738 mmHg 62%
08:00 +19°C° 0 mm 4 mps 738 mmHg 65%
09:00 +21°C° 0 mm 5 mps 738 mmHg 63%
10:00 +22°C° 0 mm 5 mps 738 mmHg 61%
11:00 +25°C° 0 mm 5 mps 738 mmHg 59%
12:00 +26°C° 0.1 mm 5 mps 738 mmHg 57%
13:00 +27°C° 0.1 mm 4 mps 737 mmHg 55%
14:00 +27°C° 0.1 mm 4 mps 737 mmHg 53%
15:00 +28°C° 0.2 mm 4 mps 737 mmHg 55%
16:00 +28°C° 0.2 mm 3 mps 736 mmHg 57%
17:00 +28°C° 0.2 mm 3 mps 736 mmHg 58%
18:00 +26°C° 0.2 mm 2 mps 736 mmHg 63%
19:00 +24°C° 0.2 mm 2 mps 736 mmHg 68%
20:00 +23°C° 0.2 mm 1 mps 736 mmHg 73%
21:00 +22°C° 0.3 mm 1 mps 735 mmHg 75%
22:00 +21°C° 0.3 mm 1 mps 735 mmHg 77%
23:00 +21°C° 0.3 mm 1 mps 735 mmHg 79%

18 August, Tuesday

Time Temperature Precipitation Wind Pressure Humidity
00:00 +20°C° 0 mm 1 mps 735 mmHg 80%
01:00 +20°C° 0 mm 1 mps 735 mmHg 81%
02:00 +20°C° 0 mm 1 mps 735 mmHg 83%
03:00 +20°C° 0.1 mm 1 mps 735 mmHg 84%
04:00 +20°C° 0.1 mm 1 mps 734 mmHg 85%
05:00 +19°C° 0.1 mm 1 mps 734 mmHg 86%
06:00 +21°C° 0.1 mm 1 mps 734 mmHg 83%
07:00 +21°C° 0.1 mm 2 mps 734 mmHg 81%
08:00 +23°C° 0.1 mm 2 mps 734 mmHg 78%
09:00 +25°C° 0.2 mm 2 mps 734 mmHg 72%
10:00 +26°C° 0.2 mm 3 mps 734 mmHg 66%
11:00 +28°C° 0.2 mm 3 mps 734 mmHg 60%
12:00 +29°C° 0.6 mm 3 mps 734 mmHg 57%
13:00 +29°C° 0.6 mm 3 mps 733 mmHg 54%
14:00 +30°C° 0.6 mm 3 mps 733 mmHg 51%
15:00 +30°C° 0.2 mm 2 mps 733 mmHg 52%
16:00 +30°C° 0.2 mm 2 mps 733 mmHg 53%
17:00 +30°C° 0.2 mm 1 mps 733 mmHg 54%
18:00 +28°C° 1.3 mm 3 mps 732 mmHg 64%
19:00 +25°C° 1.3 mm 4 mps 732 mmHg 73%
20:00 +21°C° 1.3 mm 6 mps 732 mmHg 82%
21:00 +21°C° 0.8 mm 4 mps 732 mmHg 81%
22:00 +20°C° 0.8 mm 3 mps 732 mmHg 80%
23:00 +21°C° 0.8 mm 1 mps 732 mmHg 79%

19 August, Wednesday

Time Temperature Precipitation Wind Pressure Humidity
00:00 +20°C° 0.2 mm 2 mps 731 mmHg 79%
01:00 +20°C° 0.2 mm 2 mps 731 mmHg 79%
02:00 +19°C° 0.2 mm 3 mps 731 mmHg 80%
03:00 +19°C° 0 mm 3 mps 731 mmHg 82%
04:00 +19°C° 0 mm 3 mps 731 mmHg 85%
05:00 +18°C° 0 mm 3 mps 731 mmHg 88%
06:00 +19°C° 0 mm 3 mps 731 mmHg 88%
07:00 +20°C° 0 mm 4 mps 731 mmHg 88%
08:00 +20°C° 0 mm 5 mps 732 mmHg 88%
09:00 +21°C° 0 mm 5 mps 732 mmHg 86%
10:00 +21°C° 0 mm 5 mps 732 mmHg 83%
11:00 +21°C° 0 mm 6 mps 732 mmHg 80%
12:00 +21°C° 0 mm 5 mps 732 mmHg 79%
13:00 +21°C° 0 mm 5 mps 732 mmHg 79%
14:00 +20°C° 0 mm 5 mps 732 mmHg 79%
15:00 +21°C° 0 mm 5 mps 732 mmHg 77%
16:00 +21°C° 0 mm 5 mps 732 mmHg 76%
17:00 +22°C° 0 mm 5 mps 732 mmHg 75%
18:00 +20°C° 0 mm 4 mps 732 mmHg 80%
19:00 +19°C° 0 mm 3 mps 732 mmHg 84%
20:00 +18°C° 0 mm 3 mps 732 mmHg 89%
21:00 +18°C° 0 mm 3 mps 732 mmHg 90%
22:00 +17°C° 0 mm 3 mps 732 mmHg 92%
23:00 +17°C° 0 mm 3 mps 733 mmHg 93%
Show more